�������l�o���
Date,Time,MP-1(��Sv/h),MP-2(��Sv/h),MP-3(��Sv/h),MP-4(��Sv/h),MP-5(��Sv/h),MP-6(��Sv/h),MP-7(��Sv/h),MP-8(��Sv/h),����,����(m/s),���J
2017/07/14,00:00,0.980,1.563,1.045,1.862,1.280,0.524,0.959,0.885,��쐼,2.3,��
2017/07/14,00:10,0.981,1.563,1.046,1.862,1.279,0.524,0.959,0.885,��,2.6,��
2017/07/14,00:20,0.981,1.563,1.046,1.860,1.281,0.524,0.962,0.885,��쐼,3.6,��
2017/07/14,00:30,0.980,1.562,1.044,1.860,1.282,0.524,0.961,0.886,��,4.3,��
2017/07/14,00:40,0.980,1.560,1.046,1.861,1.281,0.527,0.961,0.884,��,3.9,��
2017/07/14,00:50,0.980,1.564,1.046,1.861,1.279,0.527,0.959,0.885,��쐼,3.6,��
2017/07/14,01:00,0.977,1.560,1.046,1.863,1.284,0.525,0.960,0.886,��,3.2,��
2017/07/14,01:10,0.980,1.563,1.046,1.861,1.280,0.525,0.959,0.885,��,3.4,��
2017/07/14,01:20,0.978,1.563,1.045,1.859,1.283,0.525,0.960,0.884,��,4.3,��
2017/07/14,01:30,0.979,1.564,1.048,1.860,1.283,0.525,0.960,0.887,��,4.0,��
2017/07/14,01:40,0.980,1.565,1.045,1.862,1.279,0.526,0.958,0.886,��,4.9,��
2017/07/14,01:50,0.979,1.564,1.046,1.861,1.279,0.525,0.960,0.884,��쐼,4.5,��
2017/07/14,02:00,0.979,1.562,1.045,1.861,1.281,0.525,0.960,0.887,��쐼,4.3,��
2017/07/14,02:10,0.978,1.564,1.046,1.863,1.282,0.525,0.959,0.885,��쐼,4.7,��
2017/07/14,02:20,0.980,1.563,1.046,1.864,1.280,0.525,0.959,0.886,�쐼,4.0,��
2017/07/14,02:30,0.980,1.567,1.047,1.859,1.282,0.526,0.958,0.885,��쐼,3.9,��
2017/07/14,02:40,0.982,1.564,1.047,1.860,1.282,0.526,0.962,0.885,��쐼,2.8,��
2017/07/14,02:50,0.982,1.562,1.046,1.859,1.283,0.526,0.961,0.886,��쐼,2.0,��
2017/07/14,03:00,0.980,1.564,1.045,1.861,1.281,0.527,0.959,0.885,��쐼,2.0,��
2017/07/14,03:10,0.982,1.565,1.046,1.864,1.280,0.526,0.960,0.886,��쐼,2.6,��
2017/07/14,03:20,0.982,1.561,1.045,1.863,1.282,0.526,0.960,0.886,�쐼,2.8,��
2017/07/14,03:30,0.981,1.563,1.046,1.860,1.281,0.525,0.960,0.886,�쐼,2.8,��
2017/07/14,03:40,0.982,1.564,1.046,1.863,1.280,0.526,0.961,0.887,�쐼,3.3,��
2017/07/14,03:50,0.979,1.563,1.045,1.862,1.278,0.526,0.960,0.888,�쐼,3.6,��
2017/07/14,04:00,0.982,1.564,1.046,1.860,1.277,0.526,0.960,0.884,�쐼,3.6,��
2017/07/14,04:10,0.980,1.562,1.046,1.863,1.280,0.527,0.960,0.885,�쐼,3.7,��
2017/07/14,04:20,0.980,1.564,1.048,1.861,1.280,0.526,0.962,0.886,�쐼,3.6,��
2017/07/14,04:30,0.984,1.563,1.048,1.865,1.283,0.527,0.962,0.885,��쐼,3.5,��
2017/07/14,04:40,0.982,1.563,1.047,1.859,1.281,0.526,0.961,0.883,�쐼,3.2,��
2017/07/14,04:50,0.982,1.561,1.046,1.863,1.281,0.526,0.961,0.887,�쐼,3.1,��
2017/07/14,05:00,0.982,1.563,1.046,1.863,1.283,0.526,0.959,0.887,���쐼,2.5,��
2017/07/14,05:10,0.982,1.563,1.046,1.860,1.279,0.525,0.961,0.889,��,2.2,��
2017/07/14,05:20,0.980,1.562,1.046,1.861,1.280,0.527,0.961,0.887,��,2.3,��
2017/07/14,05:30,0.979,1.563,1.045,1.864,1.281,0.526,0.961,0.885,���k��,2.0,��
2017/07/14,05:40,0.981,1.564,1.048,1.861,1.281,0.526,0.961,0.886,���k��,2.3,��
2017/07/14,05:50,0.980,1.566,1.045,1.863,1.280,0.527,0.960,0.887,���k��,1.2,��
2017/07/14,06:00,0.983,1.565,1.046,1.862,1.280,0.527,0.961,0.886,���k��,0.9,��
2017/07/14,06:10,0.980,1.566,1.047,1.860,1.281,0.528,0.959,0.886,�k��,1.2,��
2017/07/14,06:20,0.981,1.567,1.047,1.860,1.279,0.525,0.958,0.886,�k��,1.7,��
2017/07/14,06:30,0.979,1.566,1.047,1.863,1.280,0.526,0.959,0.888,���쐼,0.6,��
2017/07/14,06:40,0.979,1.567,1.043,1.862,1.281,0.524,0.960,0.886,���쓌,1.4,��
2017/07/14,06:50,0.980,1.567,1.048,1.863,1.282,0.524,0.961,0.885,�쓌,2.0,��
2017/07/14,07:00,0.980,1.568,1.046,1.861,1.283,0.525,0.959,0.887,�쓌,2.3,��
2017/07/14,07:10,0.978,1.563,1.047,1.866,1.282,0.526,0.960,0.885,�쓌,2.0,��
2017/07/14,07:20,0.977,1.567,1.045,1.864,1.284,0.526,0.961,0.887,�쓌,2.3,��
2017/07/14,07:30,0.981,1.566,1.046,1.866,1.281,0.527,0.960,0.883,�쓌,2.0,��
2017/07/14,07:40,0.980,1.565,1.046,1.859,1.283,0.526,0.960,0.884,�쓌,2.2,��
2017/07/14,07:50,0.981,1.567,1.046,1.865,1.284,0.527,0.962,0.885,�쓌,2.3,��
2017/07/14,08:00,0.979,1.567,1.044,1.864,1.283,0.527,0.959,0.885,��쓌,2.6,��
2017/07/14,08:10,0.980,1.566,1.046,1.864,1.284,0.527,0.961,0.884,��쓌,3.2,��
2017/07/14,08:20,0.982,1.570,1.047,1.866,1.285,0.526,0.960,0.884,��쓌,3.2,��
2017/07/14,08:30,0.986,1.567,1.045,1.866,1.283,0.527,0.961,0.883,��쓌,3.1,��
2017/07/14,08:40,0.982,1.569,1.046,1.866,1.284,0.526,0.962,0.884,��,1.7,��
2017/07/14,08:50,0.984,1.572,1.049,1.867,1.286,0.527,0.964,0.885,��쓌,1.2,��
2017/07/14,09:00,0.986,1.571,1.048,1.867,1.286,0.527,0.963,0.885,��쓌,0.6,��
2017/07/14,09:10,0.985,1.574,1.047,1.865,1.287,0.528,0.962,0.884,���쓌,1.2,��
2017/07/14,09:20,0.985,1.572,1.047,1.868,1.289,0.527,0.963,0.885,�쓌,2.2,��
2017/07/14,09:30,0.985,1.571,1.047,1.867,1.288,0.527,0.962,0.886,��쓌,4.7,��
2017/07/14,09:40,0.985,1.572,1.045,1.871,1.291,0.526,0.964,0.884,��쓌,4.0,��
2017/07/14,09:50,0.986,1.571,1.048,1.868,1.292,0.527,0.963,0.885,�쓌,2.6,��
2017/07/14,10:00,0.987,1.576,1.050,1.868,1.290,0.526,0.961,0.885,��쓌,3.5,��
2017/07/14,10:10,0.988,1.575,1.048,1.871,1.293,0.526,0.963,0.884,��쓌,3.3,��
2017/07/14,10:20,0.992,1.577,1.048,1.871,1.294,0.525,0.963,0.885,��쓌,3.1,��
2017/07/14,10:30,0.992,1.579,1.051,1.869,1.295,0.529,0.963,0.886,��쓌,2.3,��
2017/07/14,10:40,0.992,1.577,1.053,1.874,1.294,0.529,0.964,0.886,��쓌,3.0,��
2017/07/14,10:50,0.994,1.582,1.052,1.875,1.298,0.528,0.963,0.886,��쓌,3.6,��
2017/07/14,11:00,0.991,1.584,1.051,1.873,1.298,0.527,0.965,0.886,��쓌,6.0,��
2017/07/14,11:10,0.992,1.582,1.051,1.873,1.300,0.528,0.963,0.886,��쓌,7.2,��
2017/07/14,11:20,0.992,1.582,1.053,1.871,1.299,0.529,0.964,0.887,��,6.6,��
2017/07/14,11:30,0.993,1.585,1.054,1.872,1.301,0.527,0.968,0.890,��,6.8,��
2017/07/14,11:40,0.995,1.585,1.058,1.873,1.303,0.527,0.968,0.886,��,5.6,��
2017/07/14,11:50,0.998,1.587,1.058,1.876,1.302,0.526,0.967,0.887,��,5.4,��
2017/07/14,12:00,0.996,1.587,1.059,1.874,1.303,0.527,0.966,0.888,��,6.0,��
2017/07/14,12:10,0.997,1.585,1.059,1.877,1.305,0.528,0.967,0.888,��,6.1,��
2017/07/14,12:20,1.002,1.590,1.058,1.877,1.307,0.528,0.969,0.889,��,6.1,��
2017/07/14,12:30,1.000,1.590,1.062,1.880,1.306,0.528,0.969,0.889,��쐼,4.7,��
2017/07/14,12:40,1.001,1.593,1.060,1.878,1.310,0.528,0.969,0.890,��,3.7,��
2017/07/14,12:50,1.003,1.592,1.063,1.880,1.310,0.528,0.969,0.892,��쓌,3.7,��
2017/07/14,13:00,1.000,1.592,1.061,1.880,1.307,0.527,0.970,0.889,��쓌,3.8,��
2017/07/14,13:10,1.003,1.593,1.061,1.883,1.310,0.530,0.968,0.891,��,4.4,��
2017/07/14,13:20,1.004,1.592,1.060,1.878,1.310,0.529,0.971,0.889,��,4.8,��
2017/07/14,13:30,1.002,1.593,1.060,1.879,1.312,0.527,0.968,0.889,��쓌,5.6,��
2017/07/14,13:40,1.003,1.595,1.061,1.883,1.310,0.528,0.967,0.888,��쓌,6.2,��
2017/07/14,13:50,1.001,1.594,1.062,1.880,1.315,0.528,0.968,0.891,��쓌,7.6,��
2017/07/14,14:00,1.003,1.597,1.060,1.883,1.313,0.528,0.967,0.889,��,6.7,��
2017/07/14,14:10,1.004,1.595,1.060,1.884,1.314,0.529,0.970,0.891,��,6.9,��
2017/07/14,14:20,1.000,1.597,1.061,1.881,1.317,0.529,0.970,0.890,��,8.4,��
2017/07/14,14:30,1.005,1.599,1.061,1.884,1.317,0.529,0.969,0.891,��,7.7,��
2017/07/14,14:40,1.004,1.598,1.062,1.883,1.317,0.529,0.970,0.890,��,8.1,��
2017/07/14,14:50,1.006,1.599,1.062,1.884,1.313,0.528,0.974,0.893,��,8.4,��
2017/07/14,15:00,1.003,1.598,1.063,1.884,1.317,0.529,0.974,0.891,��,9.0,��
2017/07/14,15:10,1.005,1.596,1.066,1.886,1.316,0.529,0.975,0.891,��,8.9,��
2017/07/14,15:20,1.005,1.598,1.065,1.890,1.319,0.528,0.974,0.891,��쓌,8.9,��
2017/07/14,15:30,1.005,1.597,1.064,1.890,1.317,0.528,0.972,0.892,��,10.0,��
2017/07/14,15:40,1.006,1.597,1.065,1.891,1.319,0.527,0.975,0.892,��,7.8,��
2017/07/14,15:50,1.006,1.598,1.065,1.890,1.319,0.529,0.973,0.891,��쓌,10.9,��
2017/07/14,16:00,1.006,1.598,1.064,1.892,1.319,0.529,0.974,0.891,��,11.3,��
2017/07/14,16:10,1.006,1.599,1.065,1.891,1.320,0.529,0.973,0.891,��,9.3,��
2017/07/14,16:20,1.008,1.601,1.064,1.894,1.319,0.528,0.973,0.891,��,7.7,��
2017/07/14,16:30,1.004,1.598,1.066,1.892,1.320,0.529,0.971,0.892,��,8.4,��
2017/07/14,16:40,1.002,1.601,1.066,1.891,1.316,0.530,0.970,0.890,��,9.4,��
2017/07/14,16:50,1.004,1.601,1.066,1.892,1.319,0.529,0.973,0.890,��,10.7,��
2017/07/14,17:00,1.008,1.603,1.066,1.889,1.317,0.529,0.971,0.892,��,9.7,��
2017/07/14,17:10,1.005,1.600,1.068,1.893,1.319,0.528,0.969,0.892,��,8.8,��
2017/07/14,17:20,1.005,1.602,1.067,1.891,1.317,0.529,0.971,0.890,��,8.4,��
2017/07/14,17:30,1.006,1.602,1.067,1.891,1.318,0.530,0.971,0.890,��,9.7,��
2017/07/14,17:40,1.007,1.601,1.065,1.894,1.319,0.530,0.972,0.891,��,9.0,��
2017/07/14,17:50,1.007,1.601,1.067,1.891,1.320,0.528,0.971,0.892,��,9.1,��
2017/07/14,18:00,1.006,1.601,1.066,1.890,1.318,0.527,0.971,0.891,��,8.3,��
2017/07/14,18:10,1.004,1.600,1.068,1.892,1.317,0.528,0.971,0.889,��,9.3,��
2017/07/14,18:20,1.004,1.603,1.064,1.894,1.316,0.529,0.969,0.893,��,9.9,��
2017/07/14,18:30,1.004,1.601,1.063,1.892,1.319,0.529,0.971,0.890,��,11.8,��
2017/07/14,18:40,1.003,1.600,1.066,1.891,1.317,0.527,0.970,0.893,��,10.8,��
2017/07/14,18:50,1.003,1.603,1.064,1.891,1.315,0.527,0.970,0.892,��,9.6,��
2017/07/14,19:00,1.004,1.600,1.067,1.892,1.316,0.527,0.970,0.891,��,9.4,��
2017/07/14,19:10,1.005,1.601,1.065,1.887,1.317,0.528,0.969,0.891,��,9.0,��
2017/07/14,19:20,1.002,1.602,1.066,1.892,1.316,0.527,0.969,0.891,��,9.2,��
2017/07/14,19:30,1.001,1.602,1.067,1.890,1.321,0.528,0.969,0.891,��,8.8,��
2017/07/14,19:40,1.003,1.601,1.066,1.891,1.320,0.528,0.970,0.892,��,8.6,��
2017/07/14,19:50,1.002,1.602,1.066,1.889,1.319,0.528,0.967,0.890,��,8.9,��
2017/07/14,20:00,1.002,1.603,1.065,1.893,1.319,0.528,0.970,0.890,��,8.8,��
2017/07/14,20:10,1.005,1.603,1.065,1.892,1.319,0.528,0.969,0.891,��,7.6,��
2017/07/14,20:20,1.006,1.603,1.066,1.890,1.319,0.528,0.969,0.892,��,6.6,��
2017/07/14,20:30,1.003,1.603,1.064,1.889,1.319,0.528,0.970,0.892,��쐼,6.0,��
2017/07/14,20:40,1.003,1.605,1.063,1.891,1.318,0.528,0.968,0.893,��,5.7,��
2017/07/14,20:50,1.002,1.599,1.067,1.892,1.318,0.529,0.971,0.891,��,5.9,��
2017/07/14,21:00,1.002,1.601,1.068,1.888,1.317,0.528,0.970,0.893,��,6.3,��
2017/07/14,21:10,1.002,1.604,1.067,1.889,1.318,0.528,0.969,0.892,��,6.2,��
2017/07/14,21:20,1.002,1.601,1.067,1.891,1.317,0.528,0.969,0.891,��,6.2,��
2017/07/14,21:30,1.004,1.603,1.067,1.890,1.319,0.529,0.970,0.892,��,7.3,��
2017/07/14,21:40,1.005,1.604,1.068,1.890,1.321,0.529,0.969,0.891,��,6.7,��
2017/07/14,21:50,1.000,1.603,1.068,1.892,1.314,0.530,0.970,0.894,��,5.6,��
2017/07/14,22:00,1.001,1.603,1.066,1.891,1.315,0.528,0.970,0.891,��,6.1,��
2017/07/14,22:10,1.000,1.601,1.067,1.891,1.319,0.529,0.969,0.891,��,4.8,��
2017/07/14,22:20,0.999,1.602,1.066,1.893,1.318,0.528,0.969,0.891,��쐼,4.8,��
2017/07/14,22:30,1.004,1.604,1.070,1.891,1.318,0.528,0.969,0.892,��,5.1,��
2017/07/14,22:40,1.002,1.603,1.065,1.894,1.315,0.528,0.968,0.891,��,5.6,��
2017/07/14,22:50,1.002,1.602,1.067,1.892,1.319,0.527,0.971,0.891,��,5.8,��
2017/07/14,23:00,1.003,1.602,1.067,1.894,1.318,0.528,0.968,0.892,��,7.2,��
2017/07/14,23:10,1.003,1.601,1.067,1.891,1.318,0.529,0.969,0.893,��,7.2,��
2017/07/14,23:20,1.003,1.602,1.067,1.893,1.317,0.528,0.970,0.891,��,7.3,��
2017/07/14,23:30,1.001,1.600,1.066,1.892,1.320,0.529,0.970,0.892,��,7.3,��
2017/07/14,23:40,1.001,1.600,1.066,1.890,1.318,0.529,0.970,0.894,��,7.1,��
2017/07/14,23:50,1.000,1.603,1.066,1.890,1.317,0.527,0.970,0.891,��,5.8,��
